Retour au catalogue

KUIPER-00048

ActifCommunicationsLEO
NORAD 64508·PAYLOAD·🇺🇸 United States

Lancé Jun 23, 2025 depuis Cape Canaveral Space Force Station

Loading…

Prochains Passages (prochaines 24 heures)

TLE

FraisSource: CelesTrak SupGP

Époque: Sep 14, 2026, 22:25 UTC

1 64508C 25134J   26257.93431713  .00005082  00000+0  66555-3 0  2572
2 64508  51.8974  98.7235 0000787 106.1877 248.9347 14.79904666    15

Suivez KUIPER-00048 en temps réel avec AllMySat

Download on the App Store